Weather History for KJVW - December, 2012

Change the Weather History Date:

Monday, December 17, 2012

  Actual Average Record
Temperature  
Mean Temperature 55 °F -  
Max Temperature 69 °F - - ()
Min Temperature 41 °F - - ()
Degree Days  
Heating Degree Days 10    
Growing Degree Days 5 (Base 50)    
Moisture  
Dew Point 54 °F    
Average Humidity 88    
Maximum Humidity 100    
Minimum Humidity 43    
Precipitation  
Precipitation 0.00 in - - ()
Sea Level Pressure  
Sea Level Pressure 29.80 in    
Wind  
Wind Speed 5 mph ()    
Max Wind Speed 17 mph    
Max Gust Speed 28 mph    
Visibility 8.4 miles    
Events      
T = Trace of Precipitation, MM = Missing Value Source: Averaged Metar Reports

Daily Weather History Graph

Daily Weather History Graph

Search for Another Location

Airport or City:

Trip Planner

Search our weather history database for the weather conditions in past years. The results will help you decide how hot, cold, wet, or windy it might be!

Date:

Astronomy

Dec. 17, 2012 Rise Set
Actual Time 6:56 AM CST 4:59 PM CST
Civil Twilight 6:29 AM CST 5:26 PM CST
Nautical Twilight 5:59 AM CST 5:56 PM CST
Astronomical Twilight 5:29 AM CST 6:26 PM CST
Moon 10:19 AM CST (12/17) 10:05 PM CST (12/17)
Length of Visible Light 10h 56m
Length of Day
10h 02m
Waxing Crescent, 25% of the Moon is Illuminated
Dec 17
Waxing Crescent
Dec 19
First Quarter
Dec 28
Full
Jan 4
Last Quarter
Jan 11
New

Hourly Weather History & Observations

Time (CST) Temp. Dew Point Humidity Pressure Visibility Wind Dir Wind Speed Gust Speed Precip Events Conditions
12:15 AM 59.0 °F 59.0 °F 100% 29.80 in 10.0 mi South 4.6 mph - N/A   Overcast
12:35 AM 59.0 °F 59.0 °F 100% 29.79 in 2.0 mi SSW 5.8 mph - N/A   Overcast
12:55 AM 59.0 °F 59.0 °F 100% 29.79 in 3.0 mi South 4.6 mph - N/A   Overcast
1:15 AM 59.0 °F 59.0 °F 100% 29.80 in 10.0 mi SSW 4.6 mph - N/A   Overcast
1:35 AM 59.0 °F 59.0 °F 100% 29.80 in 10.0 mi SW 3.5 mph - N/A   Overcast
1:55 AM 59.0 °F 59.0 °F 100% 29.79 in 10.0 mi SSW 3.5 mph - N/A   Overcast
2:15 AM 59.0 °F 59.0 °F 100% 29.79 in 10.0 mi SW 3.5 mph - N/A   Overcast
2:35 AM 59.0 °F 59.0 °F 100% 29.79 in 7.0 mi SW 4.6 mph - N/A   Overcast
2:55 AM 60.8 °F 60.8 °F 100% 29.80 in 3.0 mi SW 5.8 mph - N/A   Overcast
3:15 AM 60.8 °F 60.8 °F 100% 29.80 in 2.0 mi SW 4.6 mph - N/A   Overcast
3:35 AM 60.8 °F 60.8 °F 100% 29.80 in 1.5 mi SW 4.6 mph - N/A   Overcast
3:55 AM 60.8 °F 60.8 °F 100% 29.80 in 2.5 mi WSW 4.6 mph - N/A   Overcast
4:15 AM 60.8 °F 60.8 °F 100% 29.79 in 2.5 mi SW 4.6 mph - N/A   Overcast
4:35 AM 60.8 °F 60.8 °F 100% 29.79 in 10.0 mi SW 4.6 mph - N/A   Mostly Cloudy
4:55 AM 60.8 °F 60.8 °F 100% 29.79 in 10.0 mi WSW 3.5 mph - N/A   Mostly Cloudy
5:15 AM 60.8 °F 60.8 °F 100% 29.79 in 10.0 mi WSW 4.6 mph - N/A   Mostly Cloudy
5:35 AM 60.8 °F 60.8 °F 100% 29.78 in 10.0 mi SSW 3.5 mph - N/A   Overcast
5:55 AM 60.8 °F 60.8 °F 100% 29.79 in 10.0 mi Calm Calm - N/A   Overcast
6:15 AM 60.8 °F 60.8 °F 100% 29.80 in 10.0 mi SSW 4.6 mph - N/A   Mostly Cloudy
6:35 AM 59.0 °F 59.0 °F 100% 29.80 in 10.0 mi Calm Calm - N/A   Overcast
6:55 AM 59.0 °F 59.0 °F 100% 29.79 in 10.0 mi South 3.5 mph - N/A   Mostly Cloudy
7:35 AM 59.0 °F 59.0 °F 100% 29.79 in 8.0 mi Calm Calm - N/A   Clear
7:55 AM 59.0 °F 59.0 °F 100% 29.79 in 7.0 mi South 3.5 mph - N/A   Clear
8:15 AM 59.0 °F 59.0 °F 100% 29.78 in 6.0 mi South 3.5 mph - N/A   Scattered Clouds
8:35 AM 60.8 °F 60.8 °F 100% 29.79 in 8.0 mi SW 8.1 mph - N/A   Overcast
8:55 AM 60.8 °F 60.8 °F 100% 29.79 in 9.0 mi SSW 6.9 mph - N/A   Mostly Cloudy
9:15 AM 62.6 °F 60.8 °F 94% 29.79 in 9.0 mi SW 5.8 mph - N/A   Mostly Cloudy
9:35 AM 62.6 °F 60.8 °F 94% 29.79 in 9.0 mi SSW 8.1 mph - N/A   Scattered Clouds
9:55 AM 62.6 °F 60.8 °F 94% 29.79 in 10.0 mi SW 8.1 mph - N/A   Partly Cloudy
10:15 AM 62.6 °F 60.8 °F 94% 29.79 in 10.0 mi SW 10.4 mph - N/A   Partly Cloudy
10:35 AM 62.6 °F 60.8 °F 94% 29.78 in 10.0 mi SW 8.1 mph - N/A   Partly Cloudy
10:55 AM 62.6 °F 60.8 °F 94% 29.78 in 10.0 mi SW 9.2 mph - N/A   Clear
11:15 AM 62.6 °F 59.0 °F 88% 29.77 in 10.0 mi SW 11.5 mph 17.3 mph N/A   Clear
11:35 AM 64.4 °F 59.0 °F 83% 29.76 in 10.0 mi SW 8.1 mph - N/A   Clear
11:55 AM 66.2 °F 59.0 °F 78% 29.75 in 10.0 mi WSW 15.0 mph 18.4 mph N/A   Clear
12:15 PM 66.2 °F 59.0 °F 78% 29.75 in 10.0 mi WSW 10.4 mph 24.2 mph N/A   Clear
12:35 PM 68.0 °F 57.2 °F 68% 29.74 in 10.0 mi WSW 11.5 mph 21.9 mph N/A   Clear
12:55 PM 68.0 °F 57.2 °F 68% 29.73 in 10.0 mi West 10.4 mph 17.3 mph N/A   Clear
1:15 PM 69.8 °F 55.4 °F 60% 29.73 in 10.0 mi West 11.5 mph - N/A   Clear
1:35 PM 68.0 °F 50.0 °F 52% 29.73 in 10.0 mi West 17.3 mph 27.6 mph N/A   Partly Cloudy
1:55 PM 68.0 °F 48.2 °F 49% 29.72 in 10.0 mi West 15.0 mph 23.0 mph N/A   Clear
2:15 PM 68.0 °F 46.4 °F 46% 29.72 in 10.0 mi West 16.1 mph 20.7 mph N/A   Clear
2:35 PM 68.0 °F 44.6 °F 43% 29.73 in 10.0 mi WSW 13.8 mph 21.9 mph N/A   Clear
2:55 PM 68.0 °F 44.6 °F 43% 29.73 in 10.0 mi West 12.7 mph 18.4 mph N/A   Clear
3:15 PM 68.0 °F 44.6 °F 43% 29.74 in 10.0 mi West 16.1 mph 19.6 mph N/A   Clear
3:35 PM 66.2 °F 44.6 °F 46% 29.76 in 10.0 mi West 12.7 mph 19.6 mph N/A   Clear
6:15 PM 53.6 °F 44.6 °F 72% 29.80 in 10.0 mi Calm Calm - N/A   Clear
6:35 PM 53.6 °F 41.0 °F 62% 29.81 in 10.0 mi Calm Calm - N/A   Clear
6:55 PM 53.6 °F 42.8 °F 67% 29.81 in 10.0 mi Calm Calm - N/A   Clear
7:15 PM 50.0 °F 44.6 °F 82% 29.82 in 10.0 mi Calm Calm - N/A   Clear
7:35 PM 48.2 °F 44.6 °F 87% 29.82 in 10.0 mi Calm Calm - N/A   Clear
7:55 PM 48.2 °F 44.6 °F 87% 29.83 in 10.0 mi Calm Calm - N/A   Clear
8:15 PM 46.4 °F 44.6 °F 93% 29.84 in 10.0 mi Calm Calm - N/A   Clear
8:35 PM 46.4 °F 44.6 °F 93% 29.84 in 10.0 mi Calm Calm - N/A   Clear
8:55 PM 44.6 °F 44.6 °F 100% 29.85 in 10.0 mi Calm Calm - N/A   Clear
9:15 PM 44.6 °F 44.6 °F 100% 29.86 in 10.0 mi Calm Calm - N/A   Clear
9:35 PM 44.6 °F 44.6 °F 100% 29.87 in 3.0 mi Calm Calm - N/A   Clear
9:55 PM 44.6 °F 44.6 °F 100% 29.88 in 1.2 mi Calm Calm - N/A   Clear
10:15 PM 44.6 °F 44.6 °F 100% 29.89 in 10.0 mi Calm Calm - N/A   Clear
10:35 PM 42.8 °F 42.8 °F 100% 29.90 in 9.0 mi Calm Calm - N/A   Clear
10:55 PM 42.8 °F 42.8 °F 100% 29.91 in 8.0 mi Calm Calm - N/A   Clear
11:15 PM 42.8 °F 42.8 °F 100% 29.91 in 2.5 mi Calm Calm - N/A   Clear
11:35 PM 41.0 °F 41.0 °F 100% 29.91 in 10.0 mi Calm Calm - N/A   Clear
11:55 PM 41.0 °F 41.0 °F 100% 29.92 in 5.0 mi Calm Calm - N/A   Clear